ST-2

Last updated on Mon Oct 14 2024 00:02:38 GMT+0000 (Coordinated Universal Time)

1 37606U 11022B 24287.49560523 -.00000213 00000+0 00000+0 0 9990 2 37606 0.0152 136.6898 0001349 100.8980 51.4075 1.00269812 49145
UTC large
Height (km)
Speed (km/s)
/
Latitude / Longitude
Inclination (degrees)
Orbital Period (minutes)
Azimuth
Elevation
Range (km)
Doppler Factor

Next 0 passes for location: London (51.5072 / 0.1276)

Sorry there are no passes over London.